Anderson, SC

1:47 PM EDT on August 28, 2016 (GMT -0400)
Anderson Regional

Weather History for KAND - February, 2014

Change the Weather History Date:

Thursday, February 27, 2014

  Actual Average Record
Temperature  
Mean Temperature 40 °F -  
Max Temperature 55 °F 57 °F 78 °F (1951)
Min Temperature 25 °F 35 °F 13 °F (1963)
Degree Days  
Heating Degree Days 25    
Moisture  
Dew Point 15 °F    
Average Humidity 46    
Maximum Humidity 92    
Minimum Humidity 12    
Precipitation  
Precipitation 0.00 in - - ()
Sea Level Pressure  
Sea Level Pressure 29.87 in    
Wind  
Wind Speed 5 mph (West)    
Max Wind Speed 16 mph    
Max Gust Speed 23 mph    
Visibility 10 miles    
Events      
Averages and records for this station are not official NWS values.
T = Trace of Precipitation, MM = Missing Value Source: NWS Daily Summary

Daily Weather History Graph

Daily Weather History Graph

Search for Another Location

Airport or City:

Trip Planner

Search our weather history database for the weather conditions in past years. The results will help you decide how hot, cold, wet, or windy it might be!

Date:

Astronomy

Feb. 27, 2014 Rise Set
Actual Time 7:02 AM EST 6:25 PM EST
Civil Twilight 6:37 AM EST 6:50 PM EST
Nautical Twilight 6:07 AM EST 7:19 PM EST
Astronomical Twilight 5:38 AM EST 7:48 PM EST
Moon 5:30 AM EST (2/27) 4:51 PM EST (2/27)
Length of Visible Light 12h 13m
Length of Day
11h 22m
Waning Crescent, 4% of the Moon is Illuminated
Feb 27
Waning Crescent
Mar 1
New
Mar 8
First Quarter
Mar 16
Full
Mar 23
Last Quarter

Hourly Weather History & Observations

Time (EST) Temp. Windchill Dew Point Humidity Pressure Visibility Wind Dir Wind Speed Gust Speed Precip Events Conditions
12:56 AM 34.0 °F - 28.0 °F 79% 29.83 in 10.0 mi Calm Calm - N/A   Clear
1:56 AM 28.9 °F 23.9 °F 27.0 °F 92% 29.84 in 10.0 mi North 4.6 mph - N/A   Clear
2:56 AM 28.9 °F 22.8 °F 24.1 °F 82% 29.84 in 10.0 mi NNW 5.8 mph - N/A   Clear
3:56 AM 30.9 °F - 23.0 °F 72% 29.84 in 10.0 mi Calm Calm - N/A   Clear
4:56 AM 27.0 °F - 23.0 °F 85% 29.86 in 10.0 mi Calm Calm - N/A   Clear
5:56 AM 25.0 °F 20.7 °F 21.9 °F 88% 29.87 in 10.0 mi West 3.5 mph - N/A   Clear
6:56 AM 25.0 °F - 21.9 °F 88% 29.88 in 10.0 mi Calm Calm - N/A   Clear
7:56 AM 28.0 °F - 25.0 °F 88% 29.89 in 10.0 mi Calm Calm - N/A   Clear
8:56 AM 34.0 °F 26.6 °F 19.0 °F 54% 29.91 in 10.0 mi West 9.2 mph - N/A   Clear
9:56 AM 37.9 °F 32.7 °F 15.1 °F 39% 29.90 in 10.0 mi WSW 6.9 mph - N/A   Clear
10:56 AM 42.1 °F 37.1 °F 12.9 °F 31% 29.90 in 10.0 mi WSW 8.1 mph - N/A   Clear
11:56 AM 46.9 °F - 10.0 °F 22% 29.89 in 10.0 mi West 10.4 mph - N/A   Clear
12:56 PM 51.1 °F - 6.1 °F 16% 29.86 in 10.0 mi WSW 12.7 mph 19.6 mph N/A   Clear
1:56 PM 52.0 °F - 5.0 °F 15% 29.83 in 10.0 mi SSW 9.2 mph 19.6 mph N/A   Clear
2:56 PM 54.0 °F - 5.0 °F 14% 29.81 in 10.0 mi SW 11.5 mph - N/A   Clear
3:56 PM 55.9 °F - 7.0 °F 14% 29.81 in 10.0 mi SSW 16.1 mph 21.9 mph N/A   Clear
4:56 PM 55.9 °F - 3.9 °F 12% 29.81 in 10.0 mi WSW 16.1 mph 23.0 mph N/A   Clear
5:56 PM 53.1 °F - 7.0 °F 16% 29.83 in 10.0 mi WSW 12.7 mph - N/A   Clear
6:56 PM 48.0 °F - 10.9 °F 22% 29.85 in 10.0 mi WSW 10.4 mph - N/A   Clear
7:56 PM 45.0 °F 39.7 °F 12.0 °F 26% 29.89 in 10.0 mi WSW 10.4 mph - N/A   Clear
8:56 PM 42.1 °F 37.7 °F 12.9 °F 31% 29.90 in 10.0 mi West 6.9 mph - N/A   Clear
9:56 PM 39.0 °F 34.8 °F 12.0 °F 33% 29.93 in 10.0 mi West 5.8 mph - N/A   Clear
10:56 PM 37.9 °F - 10.9 °F 33% 29.95 in 10.0 mi Calm Calm - N/A   Clear
11:56 PM 34.0 °F 29.8 °F 12.0 °F 40% 29.96 in 10.0 mi NNW 4.6 mph - N/A   Clear